| time (UTC) | temp F | wind direction | speed knots | gust knots | rain 1hr in | rain 24hr in | rain mn in | humidity % | barometer mb |
| 20260508033032 | 50 | 39 | 3.5 | 8.7 | 0.01 | 0.04 | 0.01 | 100 | 1017.3 |
| 20260508031831 | 51 | 19 | 5.2 | 7.8 | 0.01 | 0.04 | 0.01 | 100 | 1017.4 |
| 20260508030631 | 51 | 109 | 1.7 | 6.1 | 0.01 | 0.04 | 0.01 | 100 | 1017.4 |
| 20260508025430 | 51 | 7 | 1.7 | 4.3 | 0.00 | 0.03 | 0.00 | 100 | 1017.7 |
| 20260508024229 | 51 | 331 | 5.2 | 6.1 | 0.00 | 0.03 | 0.00 | 100 | 1017.6 |
| 20260508023029 | 51 | 296 | 4.3 | 7.8 | 0.00 | 0.03 | 0.00 | 100 | 1017.7 |
| 20260508021828 | 51 | 312 | 1.7 | 5.2 | 0.00 | 0.03 | 0.00 | 100 | 1017.5 |
| 20260508020627 | 51 | 358 | 4.3 | 8.7 | 0.00 | 0.03 | 0.00 | 100 | 1017.4 |
| 20260508015427 | 51 | 352 | 4.3 | 5.2 | 0.00 | 0.03 | 0.00 | 100 | 1017.4 |
| 20260508014226 | 51 | 347 | 3.5 | 5.2 | 0.00 | 0.03 | 0.00 | 100 | 1017.1 |
| 20260508013025 | 51 | 315 | 2.6 | 9.6 | 0.00 | 0.03 | 0.00 | 100 | 1017.0 |
| 20260508011825 | 52 | 345 | 1.7 | 4.3 | 0.00 | 0.03 | 0.00 | 100 | 1017.0 |
| 20260508010624 | 51 | 355 | 5.2 | 7.0 | 0.00 | 0.03 | 0.00 | 100 | 1016.9 |
| 20260508005423 | 52 | 7 | 7.0 | 7.0 | 0.00 | 0.03 | 0.00 | 100 | 1016.9 |
| 20260508004223 | 52 | 354 | 3.5 | 7.0 | 0.00 | 0.03 | 0.00 | 100 | 1017.0 |
| 20260508003022 | 52 | 15 | 1.7 | 3.5 | 0.00 | 0.03 | 0.00 | 100 | 1017.1 |
| 20260508001821 | 52 | 320 | 3.5 | 6.1 | 0.00 | 0.03 | 0.00 | 100 | 1017.1 |
| 20260508000621 | 52 | 344 | 3.5 | 5.2 | 0.00 | 0.03 | 0.00 | 100 | 1017.2 |
| 20260507235420 | 52 | 334 | 4.3 | 7.8 | 0.00 | 0.03 | 0.00 | 100 | 1017.2 |
| 20260507234219 | 52 | 315 | 2.6 | 7.0 | 0.00 | 0.03 | 0.00 | 100 | 1017.3 |
| 20260507233019 | 52 | 329 | 5.2 | 6.1 | 0.00 | 0.03 | 0.00 | 100 | 1017.3 |
| 20260507231818 | 53 | 298 | 0.9 | 4.3 | 0.00 | 0.03 | 0.00 | 100 | 1017.2 |
| 20260507230617 | 53 | 313 | 0.9 | 3.5 | 0.00 | 0.03 | 0.00 | 100 | 1017.2 |
| 20260507225416 | 53 | 296 | 2.6 | 3.5 | 0.00 | 0.03 | 0.00 | 100 | 1017.3 |
| 20260507224216 | 53 | 277 | 2.6 | 4.3 | 0.00 | 0.03 | 0.00 | 100 | 1017.4 |
| 20260507223015 | 54 | 354 | 0.0 | 1.7 | 0.00 | 0.03 | 0.00 | 100 | 1017.4 |
| 20260507221814 | 54 | 265 | 3.5 | 4.3 | 0.00 | 0.03 | 0.00 | 100 | 1017.4 |
| 20260507220614 | 53 | 2 | 0.9 | 5.2 | 0.00 | 0.03 | 0.00 | 100 | 1017.2 |
| 20260507215413 | 54 | 305 | 0.0 | 1.7 | 0.00 | 0.03 | 0.03 | 100 | 1017.1 |
| 20260507214212 | 53 | 243 | 0.0 | 6.1 | 0.00 | 0.03 | 0.03 | 100 | 1017.0 |
| 20260507213012 | 53 | 358 | 5.2 | 7.8 | 0.00 | 0.03 | 0.03 | 100 | 1017.0 |
| 20260507211811 | 54 | 300 | 0.9 | 6.1 | 0.00 | 0.03 | 0.03 | 100 | 1017.0 |
| 20260507210610 | 53 | 302 | 0.0 | 5.2 | 0.00 | 0.03 | 0.03 | 100 | 1016.9 |
| 20260507205410 | 53 | 331 | 6.1 | 7.0 | 0.00 | 0.03 | 0.03 | 100 | 1016.8 |
| 20260507205012 | 53 | 354 | 2.6 | 7.8 | 0.00 | 0.03 | 0.03 | 100 | 1016.8 |
| 20260507204209 | 53 | 313 | 3.5 | 6.1 | 0.00 | 0.03 | 0.03 | 100 | 1016.7 |
| 20260507203008 | 53 | 22 | 2.6 | 7.0 | 0.00 | 0.03 | 0.03 | 100 | 1016.4 |
| 20260507201808 | 53 | 1 | 1.7 | 12.2 | 0.00 | 0.03 | 0.03 | 100 | 1016.3 |
| 20260507200607 | 54 | 330 | 9.6 | 12.2 | 0.00 | 0.03 | 0.03 | 100 | 1016.3 |
| 20260507195406 | 54 | 333 | 7.0 | 9.6 | 0.00 | 0.03 | 0.03 | 100 | 1016.0 |
| 20260507194206 | 54 | 307 | 7.8 | 12.2 | 0.00 | 0.03 | 0.03 | 100 | 1015.9 |
| 20260507193005 | 55 | 354 | 5.2 | 9.6 | 0.00 | 0.03 | 0.03 | 100 | 1015.8 |
| 20260507191804 | 55 | 307 | 5.2 | 8.7 | 0.00 | 0.03 | 0.03 | 100 | 1015.8 |
| 20260507190604 | 56 | 337 | 0.0 | 5.2 | 0.00 | 0.03 | 0.03 | 100 | 1015.7 |
| 20260507185403 | 56 | 299 | 2.6 | 8.7 | 0.00 | 0.03 | 0.03 | 100 | 1015.3 |
| 20260507184202 | 56 | 278 | 1.7 | 8.7 | 0.00 | 0.03 | 0.03 | 100 | 1015.1 |
| 20260507183001 | 57 | 355 | 5.2 | 7.0 | 0.01 | 0.03 | 0.03 | 100 | 1015.2 |
| 20260507181801 | 57 | 316 | 1.7 | 5.2 | 0.03 | 0.03 | 0.03 | 100 | 1015.2 |
| 20260507180600 | 57 | 322 | 7.0 | 10.4 | 0.03 | 0.03 | 0.03 | 100 | 1014.7 |
| 20260507175359 | 58 | 324 | 6.1 | 14.8 | 0.03 | 0.03 | 0.03 | 100 | 1014.2 |
| 20260507174159 | 58 | 331 | 5.2 | 12.2 | 0.03 | 0.03 | 0.03 | 100 | 1014.1 |
| 20260507172958 | 59 | 329 | 8.7 | 9.6 | 0.02 | 0.02 | 0.02 | 100 | 1013.9 |
| 20260507171757 | 61 | 309 | 5.2 | 13.0 | 0.00 | 0.00 | 0.00 | 100 | 1014.1 |
| 20260507170557 | 63 | 324 | 6.1 | 15.6 | 0.00 | 0.00 | 0.00 | 100 | 1013.6 |
| 20260507165356 | 65 | 279 | 5.2 | 9.6 | 0.00 | 0.00 | 0.00 | 100 | 1013.0 |
| 20260507164155 | 67 | 244 | 5.2 | 5.2 | 0.00 | 0.00 | 0.00 | 100 | 1012.9 |
| 20260507163356 | 68 | 286 | 3.5 | 3.5 | 0.00 | 0.00 | 0.00 | 100 | 1012.7 |
| 20260507162955 | 68 | 277 | 1.7 | 3.5 | 0.00 | 0.00 | 0.00 | 100 | 1012.7 |
| 20260507161754 | 69 | 254 | 1.7 | 5.2 | 0.00 | 0.00 | 0.00 | 100 | 1012.5 |
| 20260507160553 | 69 | 265 | 2.6 | 3.5 | 0.00 | 0.00 | 0.00 | 100 | 1012.4 |
| 20260507155353 | 69 | 254 | 4.3 | 5.2 | 0.00 | 0.00 | 0.00 | 100 | 1012.6 |
| 20260507154152 | 68 | 285 | 1.7 | 7.0 | 0.00 | 0.00 | 0.00 | 100 | 1012.5 |
| 20260507152951 | 69 | 295 | 7.8 | 11.3 | 0.00 | 0.00 | 0.00 | 100 | 1012.6 |
| 20260507151751 | 71 | 217 | 7.0 | 8.7 | 0.00 | 0.00 | 0.00 | 100 | 1012.5 |
| 20260507150550 | 70 | 188 | 4.3 | 10.4 | 0.00 | 0.00 | 0.00 | 100 | 1012.4 |
| 20260507145349 | 70 | 184 | 7.0 | 9.6 | 0.00 | 0.00 | 0.00 | 100 | 1012.4 |
| 20260507144149 | 70 | 222 | 7.8 | 8.7 | 0.00 | 0.00 | 0.00 | 100 | 1012.4 |
| 20260507142948 | 71 | 195 | 4.3 | 7.8 | 0.00 | 0.00 | 0.00 | 100 | 1012.3 |
| 20260507141747 | 72 | 196 | 3.5 | 9.6 | 0.00 | 0.00 | 0.00 | 100 | 1012.3 |
| 20260507140547 | 72 | 223 | 2.6 | 7.0 | 0.00 | 0.00 | 0.00 | 100 | 1012.3 |
| 20260507135346 | 72 | 234 | 7.0 | 10.4 | 0.00 | 0.00 | 0.00 | 100 | 1012.3 |
| 20260507134145 | 72 | 244 | 7.8 | 9.6 | 0.00 | 0.00 | 0.00 | 100 | 1012.4 |
| 20260507132944 | 72 | 226 | 7.8 | 10.4 | 0.00 | 0.00 | 0.00 | 100 | 1012.5 |
| 20260507131744 | 72 | 236 | 7.8 | 11.3 | 0.00 | 0.00 | 0.00 | 100 | 1012.5 |
| 20260507130543 | 72 | 229 | 11.3 | 12.2 | 0.00 | 0.00 | 0.00 | 100 | 1012.7 |
| 20260507125342 | 73 | 264 | 3.5 | 11.3 | 0.00 | 0.00 | 0.00 | 100 | 1012.6 |
| 20260507124142 | 72 | 174 | 6.1 | 9.6 | 0.00 | 0.00 | 0.00 | 100 | 1012.7 |
| 20260507122941 | 72 | 168 | 5.2 | 12.2 | 0.00 | 0.00 | 0.00 | 100 | 1012.6 |
| 20260507121740 | 73 | 253 | 5.2 | 10.4 | 0.00 | 0.00 | 0.00 | 100 | 1012.6 |
| 20260507120540 | 73 | 205 | 2.6 | 9.6 | 0.00 | 0.00 | 0.00 | 100 | 1012.6 |
| 20260507115339 | 74 | 233 | 6.1 | 15.6 | 0.00 | 0.00 | 0.00 | 100 | 1012.6 |
| 20260507114138 | 74 | 219 | 7.8 | 8.7 | 0.00 | 0.00 | 0.00 | 100 | 1012.7 |
| 20260507112938 | 73 | 247 | 4.3 | 11.3 | 0.00 | 0.00 | 0.00 | 100 | 1012.7 |
| 20260507111737 | 73 | 192 | 9.6 | 13.9 | 0.00 | 0.00 | 0.00 | 100 | 1012.7 |
| 20260507110536 | 74 | 185 | 4.3 | 13.0 | 0.00 | 0.00 | 0.00 | 100 | 1012.7 |
| 20260507105336 | 72 | 215 | 4.3 | 13.0 | 0.00 | 0.00 | 0.00 | 100 | 1012.6 |
| 20260507104135 | 73 | 240 | 5.2 | 16.5 | 0.00 | 0.00 | 0.00 | 100 | 1012.5 |
| 20260507102934 | 73 | 213 | 8.7 | 10.4 | 0.00 | 0.00 | 0.00 | 100 | 1012.6 |
| 20260507101734 | 71 | 222 | 5.2 | 10.4 | 0.00 | 0.00 | 0.00 | 100 | 1012.6 |
| 20260507100533 | 70 | 225 | 9.6 | 13.0 | 0.00 | 0.00 | 0.00 | 100 | 1012.6 |
| 20260507095332 | 69 | 274 | 4.3 | 11.3 | 0.00 | 0.00 | 0.00 | 100 | 1012.5 |
| 20260507094132 | 70 | 248 | 8.7 | 12.2 | 0.00 | 0.00 | 0.00 | 100 | 1012.4 |
| 20260507092931 | 71 | 194 | 7.0 | 13.0 | 0.00 | 0.00 | 0.00 | 100 | 1012.3 |
| 20260507091730 | 71 | 205 | 7.8 | 14.8 | 0.00 | 0.00 | 0.00 | 100 | 1012.2 |
| 20260507090529 | 70 | 219 | 4.3 | 11.3 | 0.00 | 0.00 | 0.00 | 100 | 1012.1 |
| 20260507085329 | 71 | 170 | 7.0 | 13.0 | 0.00 | 0.00 | 0.00 | 100 | 1011.9 |
| 20260507084128 | 70 | 195 | 5.2 | 10.4 | 0.00 | 0.00 | 0.00 | 100 | 1011.8 |
| 20260507082927 | 70 | 216 | 3.5 | 10.4 | 0.00 | 0.00 | 0.00 | 100 | 1011.7 |
| 20260507081727 | 70 | 225 | 5.2 | 11.3 | 0.00 | 0.00 | 0.00 | 100 | 1011.6 |
| 20260507080526 | 69 | 248 | 7.8 | 12.2 | 0.00 | 0.00 | 0.00 | 100 | 1011.5 |
| 20260507075325 | 68 | 209 | 6.1 | 7.0 | 0.00 | 0.00 | 0.00 | 100 | 1011.5 |
| 20260507074125 | 68 | 209 | 3.5 | 9.6 | 0.00 | 0.00 | 0.00 | 100 | 1011.3 |
| 20260507072924 | 67 | 201 | 2.6 | 7.8 | 0.00 | 0.00 | 0.00 | 100 | 1011.3 |
| 20260507071723 | 65 | 189 | 8.7 | 10.4 | 0.00 | 0.00 | 0.00 | 100 | 1011.3 |
| 20260507070523 | 64 | 189 | 4.3 | 8.7 | 0.00 | 0.00 | 0.00 | 100 | 1011.2 |
| 20260507065322 | 63 | 187 | 7.0 | 9.6 | 0.00 | 0.00 | 0.00 | 100 | 1011.2 |
| 20260507064121 | 62 | 192 | 7.8 | 10.4 | 0.00 | 0.00 | 0.00 | 100 | 1011.1 |
| 20260507062921 | 62 | 202 | 4.3 | 7.8 | 0.00 | 0.00 | 0.00 | 100 | 1010.9 |
| 20260507061720 | 61 | 182 | 4.3 | 7.0 | 0.00 | 0.00 | 0.00 | 100 | 1010.9 |
| 20260507060519 | 61 | 149 | 1.7 | 3.5 | 0.00 | 0.00 | 0.00 | 100 | 1010.8 |
| 20260507055319 | 61 | 168 | 0.0 | 0.9 | 0.00 | 0.00 | 0.00 | 100 | 1010.7 |
| 20260507054118 | 60 | 151 | 0.9 | 2.6 | 0.00 | 0.00 | 0.00 | 100 | 1010.6 |
| 20260507052917 | 60 | 135 | 0.9 | 0.9 | 0.00 | 0.00 | 0.00 | 100 | 1010.4 |
| 20260507051717 | 59 | 147 | 0.0 | 1.7 | 0.00 | 0.00 | 0.00 | 100 | 1010.3 |
| 20260507050516 | 58 | 212 | 0.9 | 0.9 | 0.00 | 0.00 | 0.00 | 100 | 1010.3 |
| 20260507045315 | 58 | 199 | 0.0 | 2.6 | 0.00 | 0.00 | 0.00 | 100 | 1010.3 |
| 20260507044115 | 58 | 254 | 0.9 | 2.6 | 0.00 | 0.00 | 0.00 | 100 | 1010.0 |
| 20260507042914 | 57 | 258 | 0.0 | 0.0 | 0.00 | 0.00 | 0.00 | 100 | 1009.8 |
| 20260507041713 | 57 | 282 | 1.7 | 1.7 | 0.00 | 0.00 | 0.00 | 100 | 1009.6 |
| 20260507040512 | 57 | 146 | 0.0 | 0.0 | 0.00 | 0.00 | 0.00 | 100 | 1009.6 |
| 20260507035312 | 57 | 146 | 0.0 | 0.9 | 0.00 | 0.00 | 0.00 | 100 | 1009.4 |